QPF
0.01 0.08 0.05 0.00 0.00 0.00 0.00 0.00 0.00 0.00 0.00 0.00 0.00 0.00 0.00 0.00 0.00 0.00 0.00 0.03 0.02 0.00
0.07 0.27 0.16 0.04 0.05 0.01 0.01 0.00 0.00 0.00 0.00 0.00 0.00 0.00 0.00 0.00 0.00 0.00 0.00 0.00 0.00 0.00
0.37 0.21 0.16 0.21 0.18 0.14 0.09 0.03 0.00 0.00 0.00 0.00 0.00 0.00 0.00 0.00 0.00 0.00 0.03 0.07 0.07 0.04
0.37 0.25 0.23 0.18 0.10 0.05 0.03 0.00 0.00 0.00 0.00 0.00 0.00 0.00 0.00 0.00 0.00 0.00 0.00 0.05 0.14 0.22
0.39 0.22 0.08 0.08 0.06 0.02 0.00 0.00 0.00 0.00 0.00 0.00 0.00 0.00 0.00 0.00 0.00 0.00 0.00 0.00 0.01 0.04
0.33 0.23 0.05 0.04 0.02 0.00 0.00 0.00 0.00 0.00 0.00 0.00 0.00 0.00 0.00 0.00 0.00 0.00 0.00 0.00 0.00 0.01
0.21 0.06 0.00 0.00 0.00 0.00 0.00 0.00 0.00 0.00 0.00 0.00 0.00 0.00 0.00 0.00 0.00 0.00 0.00 0.00 0.00 0.00
0.08 0.01 0.00 0.00 0.00 0.00 0.00 0.00 0.00 0.00 0.00 0.00 0.00 0.00 0.00 0.00 0.00 0.00 0.00 0.00 0.00 0.00
0.00 0.00 0.00 0.00 0.00 0.00 0.00 0.00 0.00 0.00 0.00 0.00 0.00 0.00 0.00 0.00 0.00 0.00 0.00 0.00 0.00 0.00
0.00 0.00 0.00 0.00 0.00 0.00 0.00 0.00 0.00 0.00 0.00 0.00 0.00 0.00 0.00 0.00 0.00 0.00 0.00 0.00 0.00 0.00
0.00 0.00 0.00 0.00 0.00 0.00 0.00 0.00 0.00 0.00 0.00 0.00 0.00 0.00 0.00 0.00 0.00 0.00 0.00 0.00 0.00 0.00
0.00 0.00 0.00 0.00 0.00 0.00 0.00 0.00 0.00 0.00 0.00 0.00 0.00 0.00 0.00 0.00 0.00 0.00 0.00 0.00 0.00 0.00
0.00 0.00 0.00 0.00 0.00 0.00 0.00 0.00 0.00 0.00 0.00 0.00 0.00 0.00 0.00 0.00 0.00 0.00 0.00 0.00 0.00 0.00
0.00 0.00 0.00 0.00 0.00 0.00 0.00 0.00 0.00 0.00 0.00 0.00 0.00 0.00 0.00 0.00 0.00 0.00 0.00 0.00 0.00 0.00
MSLP
1013.12 1013.02 1013.27 1013.47 1013.69 1013.87 1013.84 1013.61 1013.78 1014.16 1014.19 1014.26 1014.10 1014.39 1014.59 1014.74 1014.81 1014.84 1015.01 1015.11 1015.15 1015.25
1012.46 1013.16 1013.07 1013.14 1013.17 1013.25 1013.46 1013.48 1013.40 1013.72 1014.05 1014.25 1014.29 1014.41 1014.51 1014.52 1014.52 1014.65 1014.52 1014.58 1014.49 1014.57
1012.08 1012.12 1012.59 1012.73 1012.81 1013.05 1013.22 1013.38 1013.26 1013.37 1013.90 1014.19 1014.18 1014.23 1014.33 1014.26 1014.18 1014.26 1014.16 1014.10 1014.14 1014.02
1011.81 1012.29 1012.72 1012.80 1012.71 1012.86 1012.95 1013.28 1013.21 1013.52 1013.79 1013.91 1014.23 1013.92 1013.92 1014.00 1013.98 1013.95 1013.81 1013.70 1013.70 1013.53
1012.72 1011.68 1011.86 1012.89 1012.91 1012.83 1012.88 1013.10 1013.34 1013.47 1013.70 1013.95 1013.90 1014.04 1014.05 1013.90 1013.78 1013.78 1013.65 1013.44 1013.39 1013.22
1012.51 1011.86 1012.12 1012.94 1012.69 1012.73 1012.85 1012.87 1013.10 1013.36 1013.58 1013.92 1014.00 1013.94 1014.07 1014.07 1013.78 1013.60 1013.34 1013.10 1013.11 1012.99
1012.59 1011.92 1012.02 1012.10 1012.07 1012.37 1012.83 1012.73 1013.03 1013.40 1013.32 1013.65 1013.96 1013.94 1013.71 1013.81 1013.72 1013.43 1013.13 1012.80 1012.62 1012.52
1012.49 1012.13 1011.64 1011.62 1012.05 1012.16 1012.57 1012.63 1012.92 1013.06 1012.99 1012.88 1013.55 1013.38 1013.16 1013.22 1013.20 1013.10 1012.82 1012.50 1012.36 1012.12
1012.04 1012.49 1011.62 1011.76 1012.03 1012.15 1012.53 1012.72 1012.78 1013.15 1012.71 1012.73 1013.10 1013.13 1012.59 1012.69 1012.75 1012.58 1012.43 1012.17 1011.84 1011.66
1013.18 1012.83 1012.59 1012.58 1012.72 1013.18 1013.18 1013.06 1012.91 1013.26 1012.34 1012.63 1012.55 1013.17 1012.32 1011.97 1012.01 1011.93 1011.66 1011.46 1011.26 1011.13
1014.33 1014.24 1014.14 1013.95 1013.82 1013.78 1013.48 1013.34 1013.08 1012.87 1012.26 1012.43 1012.40 1012.73 1011.89 1011.37 1011.33 1011.18 1010.88 1010.68 1010.51 1010.45
1015.78 1015.67 1015.14 1014.67 1014.23 1014.16 1013.59 1013.03 1012.73 1012.60 1012.23 1012.45 1012.40 1012.06 1011.24 1010.92 1010.82 1010.51 1010.19 1009.91 1009.76 1009.71
1016.15 1015.52 1015.21 1014.81 1014.17 1013.58 1013.41 1013.21 1012.85 1012.21 1012.43 1012.43 1012.14 1011.16 1010.46 1010.32 1010.42 1010.13 1009.67 1009.19 1008.98 1008.82
1015.62 1014.96 1014.79 1014.53 1014.14 1014.13 1013.99 1013.50 1013.10 1012.78 1012.75 1012.23 1011.70 1010.37 1009.93 1009.78 1009.79 1009.57 1009.02 1008.59 1008.29 1007.97
Thickness
5781 5780 5776 5774 5770 5767 5767 5768 5767 5764 5764 5763 5762 5759 5757 5757 5755 5755 5752 5749 5749 5747
5782 5776 5776 5776 5775 5772 5769 5769 5769 5767 5763 5761 5760 5758 5756 5755 5755 5752 5752 5751 5751 5751
5777 5768 5772 5771 5773 5769 5767 5767 5769 5768 5762 5757 5757 5757 5755 5755 5755 5752 5751 5752 5750 5751
5771 5769 5769 5769 5769 5767 5766 5763 5763 5760 5758 5757 5750 5755 5754 5752 5751 5750 5750 5750 5749 5749
5752 5763 5770 5761 5763 5763 5763 5761 5757 5756 5753 5750 5750 5746 5746 5746 5747 5745 5745 5745 5746 5746
5749 5759 5758 5753 5755 5758 5757 5756 5754 5750 5747 5742 5741 5741 5739 5738 5739 5739 5741 5742 5741 5742
5745 5753 5751 5750 5755 5753 5747 5749 5746 5741 5741 5737 5733 5731 5731 5729 5730 5733 5736 5737 5738 5739
5741 5744 5748 5749 5746 5745 5742 5741 5737 5735 5734 5735 5727 5729 5728 5725 5724 5724 5727 5730 5730 5733
5738 5736 5740 5740 5739 5737 5731 5728 5725 5719 5724 5724 5720 5717 5721 5719 5718 5719 5719 5720 5722 5724
5720 5720 5722 5722 5718 5711 5710 5710 5709 5704 5713 5710 5710 5700 5708 5711 5711 5712 5714 5715 5715 5715
5696 5696 5695 5695 5696 5695 5695 5694 5695 5696 5700 5698 5698 5690 5695 5700 5701 5702 5706 5707 5708 5708
5684 5682 5682 5684 5686 5683 5686 5688 5689 5688 5689 5685 5683 5682 5687 5688 5690 5693 5695 5698 5699 5700
5673 5676 5675 5675 5677 5677 5677 5676 5676 5680 5674 5670 5671 5676 5678 5678 5677 5680 5683 5687 5689 5691
5664 5667 5665 5662 5661 5659 5656 5658 5659 5658 5652 5652 5654 5663 5664 5663 5663 5665 5671 5675 5678 5681